If you wish to contribute or participate in the discussions about articles you are invited to join SKYbrary as a registered user

 Actions

La Roche-sur-Yon Airport

From SKYbrary Wiki

LFRI
Airport
ICAO: LFRI – IATA: EDM
Summary
Name La Roche-sur-Yon Airport
Region Europe
Territory France FR.gif
Location , Pays de la Loire
Serving La Roche-sur-yon
Elevation 91.135 m
299 ft
299 ft91.135 m
Type medium airport
Coordinates 46° 42' 7.00" N, 1° 22' 43.05" W
Runways
Designator Length Width Surface ROPS
10/28 1550 m5,085.302 ft
30 m98.425 ft
ASP /


METAR
Observation LFRI 231900Z AUTO 06005KT 8000 NSC 13/12 Q1005 NOSIG
Station La Roche-Sur-Yon
Date/Time 23 October 2019 19:00:00
Wind direction 60°
Wind speed 05 kts
Lowest cloud amount nil significant cloud
Temperature 13°C
Dew point 12°C
Humidity 93%
QNH 1005 hPa
Weather condition n/a